Regional Weather Roundup
Issued by NWS

Home | Current Version | Previous Version | Graphics & Text | Print | Product List | Glossary On
Versions: 1 2 3 4 5 6 7 8 9 10 11 12 13 14 15 16 17 18 19 20 21 22 23 24 25 26 27 28 29 30 31 32 33 34 35 36 37 38 39 40 41 42 43 44 45 46 47 48 49 50
000
ASUS43 KIND 291909
RWRIN

WEATHER ROUNDUP FOR INDIANA
NATIONAL WEATHER SERVICE INDIANAPOLIS IN
300 PM EDT SUN MAY 29 2016

NOTE: "FAIR" INDICATES FEW OR NO CLOUDS BELOW 12,000 FEET WITH NO
SIGNIFICANT WEATHER AND/OR OBSTRUCTIONS TO VISIBILITY.

* - STATION DOES NOT REPORT WEATHER SUCH AS PRECIPITATION OR FOG.

+ - STATION NOT QUALITY CONTROLLED BY THE NATIONAL WEATHER SERVICE.
    USE DATA WITH CAUTION...ESPECIALLY DEWPOINT AND RELATIVE
    HUMIDITY OBSERVATIONS.

INZ001>003-010>013-019-020-292000-
NORTHWEST INDIANA

CITY           SKY/WX    TMP DP  RH WIND       PRES   REMARKS
GARY /AIRPORT/ MOSUNNY   81  64  57 W21       30.03R
KNOX *+          N/A     84  37  18 SW17G28     N/A
LA PORTE +     MOSUNNY   84  56  38 W17G29    30.02S
MICHIGAN CITY+ CLOUDY    75  59  57 W7        30.02R
MONTICELLO +   PTSUNNY   84  47  27 W14G23    30.02F
RENSSELAER +   MOSUNNY   82  54  36 W16G26    30.03F
VALPARAISO     MOSUNNY   83  58  42 W20       30.02S

$$

LMZ046-743>745-292000-
SOUTHERN LAKE MICHIGAN

STATION/POSITION TIME  TEMP    WIND        PRES    WAVE
                       AIR SEA DIR/SP/G            HT
                 (UTC) (F)     (DEG/KT/KT) (MB)    (FT)
BURNS HARBOR     1800   73     250/ 18/ 24 1016.6R
MICHIGAN CITY    1800   68     240/ 18/ 19   N/A
5NW MICH CITY    1800   65 57  280/ 10/ 14   N/A     1

$$

INZ004-005-014>016-021>024-292000-
NORTH CENTRAL INDIANA

CITY           SKY/WX    TMP DP  RH WIND       PRES   REMARKS
ELKHART        MOSUNNY   84  63  48 MISG      30.01S
GOSHEN         MOSUNNY   85  54  34 SW18G28   30.01S
LOGANSPORT +   MOSUNNY   84  54  34 W15G25    30.04F
ROCHESTER +    SUNNY     86  54  32 SW13G24   30.03S
SOUTH BEND     PTSUNNY   83  56  39 SW17G28   30.00F
WARSAW +       MOSUNNY   86  54  32 W14G20    30.02S

$$

INZ006>009-017-018-025>027-292000-
NORTHEAST INDIANA

CITY           SKY/WX    TMP DP  RH WIND       PRES   REMARKS
ANGOLA *+        N/A     88  82  84 SW16      30.01S HX 108
AUBURN +       MOSUNNY   84  55  37 W13G21    30.02F
FORT WAYNE     PTSUNNY   88  60  38 W17G25    30.02S
HUNTINGTON +   MOSUNNY   85  61  44 W14G21    30.02S

$$

INZ028-029-035-036-043>045-051>053-292000-
WEST CENTRAL INDIANA

CITY           SKY/WX    TMP DP  RH WIND       PRES   REMARKS
CRAWFORDSVL +  MOSUNNY   82  58  44 W16G23    30.06F
GREENCASTLE +  MOSUNNY   82  68  61 W3        30.07F
LAFAYETTE      MOSUNNY   83  56  39 SW12G20   30.03F
TERRE HAUTE    MOSUNNY   85  63  47 W10       30.06F

$$

INZ030>032-037>040-046>048-054>057-064-065-292000-
CENTRAL INDIANA

CITY           SKY/WX    TMP DP  RH WIND       PRES   REMARKS
CP ATTERBURY + MOSUNNY   84  64  51 W8        30.07F
COLUMBUS       MOSUNNY   86  63  45 W12       30.06F
FISHERS *+     MOSUNNY   86  68  54 SW9G18    30.05F
FRANKFORT +      N/A     83  38  20 W16G23    30.07F
GREENWOOD *+   MOSUNNY   82  61  47 SW8       30.07F
INDIANAPOLIS   CLOUDY    84  63  49 SW12G20   30.04F
-EAGLE CREEK   MOSUNNY   83  60  45 W12G17    30.05S
KOKOMO *+      PTSUNNY   84  61  45 SW16      30.03F
MARION +       PTSUNNY   86  58  39 W18       30.04S
SHELBYVILLE    PTSUNNY   86  62  44 W14G21    30.05F
ZIONSVILLE +   PTSUNNY   82  62  51 W10G20    30.06F

$$

INZ033-034-041-042-049-050-058-059-292000-
EAST CENTRAL INDIANA

CITY           SKY/WX    TMP DP  RH WIND       PRES   REMARKS
MUNCIE         PTSUNNY   86  59  39 SW12      30.04F

$$

INZ060-061-067>069-081>083-085>088-292000-
SOUTHWEST INDIANA

CITY           SKY/WX    TMP DP  RH WIND       PRES   REMARKS
EVANSVILLE     MOSUNNY   85  66  53 SW9       30.07F
HUNTINGBURG *+ SUNNY     84  66  54 W9        30.07F
WASHINGTON +   MOSUNNY   84  66  55 S3        30.05F

$$

INZ062-063-066-070>080-084-089>092-292000-
SOUTH CENTRAL AND SOUTHEAST INDIANA

CITY           SKY/WX    TMP DP  RH WIND       PRES   REMARKS
BEDFORD +      MOSUNNY   84  73  70 SW3       30.06
BLOOMINGTON    PTSUNNY   84  65  52 SW8       30.06F
MADISON *+     MOSUNNY   86  63  45 SW12      30.09F
NORTH VERNON + SUNNY     86  72  62 CALM      30.07F
SEYMOUR +      MOSUNNY   86  64  48 SW10      30.05F

$$




USA.gov is the U.S. government's official web portal to all federal, state and local government web resources and services.